Weather History for San Salvador / Ilopango, El Salvador

Change the Weather History Date:

Saturday, November 10, 2012

  Actual Average Record
Temperature  
Mean Temperature 76 °F -  
Max Temperature 86 °F 84 °F - ()
Min Temperature 66 °F 63 °F - ()
Cooling Degree Days 11    
Growing Degree Days 26 (Base 50)    
Moisture  
Dew Point 70 °F    
Average Humidity 81    
Maximum Humidity 94    
Minimum Humidity 66    
Precipitation  
Precipitation 0.00 in 0.04 in - ()
Sea Level Pressure  
Sea Level Pressure 29.99 in    
Wind  
Wind Speed 7 mph ()    
Max Wind Speed 12 mph    
Max Gust Speed -    
Visibility 6.2 miles    
Events      
T = Trace of Precipitation, MM = Missing Value Source: Averaged Metar Reports

Daily Weather History Graph

Daily Weather History Graph

Search for Another Location

Airport:

Trip Planner

Search our weather history database for the weather conditions in past years. The results will help you decide how hot, cold, wet, or windy it might be!

Date:

Astronomy

Nov. 10, 2012 Rise Set
Actual Time 5:54 AM CST 5:26 PM CST
Civil Twilight 5:32 AM CST 5:48 PM CST
Nautical Twilight 5:06 AM CST 6:14 PM CST
Astronomical Twilight 4:40 AM CST 6:39 PM CST
Moon 2:31 AM CST (11/10) 2:46 PM CST (11/10)
Length of Visible Light 12h 16m
Length of Day
11h 32m
Waning Crescent, 14% of the Moon is Illuminated
Nov 10
Waning Crescent
Nov 13
New
Nov 20
First Quarter
Nov 28
Full
Dec 6
Last Quarter

Hourly Weather History & Observations

Time (CST) Temp. Heat Index Dew Point Humidity Pressure Visibility Wind Dir Wind Speed Gust Speed Precip Events Conditions
5:50 AM 66.2 °F - 64.4 °F 94% 29.98 in - North 6.9 mph - N/A   Clear
6:50 AM 66.2 °F - 64.4 °F 94% 30.01 in - North 6.9 mph - N/A   Clear
7:50 AM 69.8 °F - 68.0 °F 94% 30.01 in - North 10.4 mph - N/A   Clear
8:50 AM 75.2 °F - 69.8 °F 83% 30.04 in - North 9.2 mph - N/A   Clear
9:50 AM 77.0 °F - 68.0 °F 74% 30.04 in - North 10.4 mph - N/A   Clear
10:50 AM 80.6 °F 84.6 °F 71.6 °F 74% 30.04 in - North 10.4 mph - N/A   Clear
11:50 AM 84.2 °F 90.9 °F 73.4 °F 70% 30.01 in - North 9.2 mph - N/A   Clear
12:50 PM 86.0 °F 93.4 °F 73.4 °F 66% 29.98 in - North 9.2 mph - N/A   Clear
1:50 PM 86.0 °F 95.1 °F 75.2 °F 70% 29.92 in - NNW 10.4 mph - N/A   Clear
2:50 PM 86.0 °F 93.4 °F 73.4 °F 66% 29.92 in - North 6.9 mph - N/A   Clear
3:50 PM 84.2 °F 90.9 °F 73.4 °F 70% 29.89 in 6.2 mi North 6.9 mph - N/A   Partly Cloudy
4:50 PM 82.4 °F 87.2 °F 71.6 °F 70% 29.89 in 6.2 mi North 8.1 mph - N/A   Partly Cloudy
5:50 PM 78.8 °F - 71.6 °F 78% 29.92 in 6.2 mi North 4.6 mph - N/A   Scattered Clouds
6:50 PM 75.2 °F - 69.8 °F 83% 29.98 in - North 9.2 mph - N/A   Clear
7:50 PM 73.4 °F - 69.8 °F 88% 30.01 in - North 9.2 mph - N/A   Clear
8:50 PM 71.6 °F - 68.0 °F 88% 30.04 in - North 8.1 mph - N/A   Clear
9:50 PM 69.8 °F - 68.0 °F 94% 30.04 in - North 11.5 mph - N/A   Clear
10:50 PM 68.0 °F - 66.2 °F 94% 30.04 in - North 6.9 mph - N/A   Clear
11:50 PM 68.0 °F - 66.2 °F 94% 30.04 in - North 8.1 mph - N/A   Clear